SCP
0 0 0 0 0 0 0 0 0 0 0 0 0 0 0 0 0 0 -0 -0 -0 0 0 0 0 0 0 0 0 0 0 0 0 0 0 0 0 0 0 0 0 0 0 0
0 0 0 0 0 0 0 0 0 0 0 0 0 0 0 0 0 0 0 0 0 0 0 0 0 0 0 0 0 0 0 0 0 0 0 0 0 0 0 0 0 0 0 0
0 0 0 0 0 0 0 0 0 0 0 0 0 0 0 0 0 0 0 0 0 0 0 0 0 0 0 0 0 0 0 0 0 0 0 0 0 0 0 0 0 0 0 0
0 0 0 0 0 0 0 0 0 0 0 0 0 0 0 0 0 0 0 0 0 0 0 0 0 0 0 0 0 0 0 0 0 0 0 0 0 0 0 0 0 0 0 0
0 0 0 0 0 0 0 0 0 0 0 0 0 0 0 0 0 0 0 0 0 0 0 0 0 0 0 0 0 0 0 0 0 0 0 0 0 0 0 0 0 0 0 0
0 0 0 0 0 0 0 0 0 0 0 0 0 0 0 0 0 0 0 0 0 0 0 0 0 0 0 0 0 0 0 0 0 0 0 0 0 0 0 0 0 0 0 0
0 0 0 0 0 0 0 0 0 0 0 0 0 0 0 0 0 0 0 0 0 0 0 0 0 0 0 0 0 0 0 0 0 0 0 0 0 0 0 0 0 0 0 0
0 0 0 0 0 0 0 0 0 0 0 0 0 0 0 0 0 0 0 0 0 0 0 0 0 0 0 0 0 0 0 0 0 0 0 0 0 0 0 0 0 0 0 0
0 0 0 0 0 0 0 0 0 0 0 0 0 0 0 0 0 0 0 0 0 0 0 0 0 0 0 0 0 0 0 0 0 0 0 0 0 0 0 0 0 0 0 0
0 0 0 0 0 0 0 0 0 0 0 0 0 0 0 0 0 0 0 0 0 0 0 0 0 0 0 0 0 0 0 0 0 0 0 0 0 0 0 0 0 0 0 0
0 0 0 0 0 0 0 0 0 0 0 0 0 0 0 0 0 0 0 0 0 0 0 0 0 0 0 0 0 0 0 0 0 0 0 0 0 0 0 0 0 0 0 0
0 0 0 0 0 0 0 0 0 0 0 0 0 0 0 0 0 0 0 0 0 0 0 0 0 0 0 0 0 0 0 0 0 0 0 0 0 0 0 0 0 0 0 0
0 0 0 0 0 0 0 0 0 0 0 0 0 0 0 0 0 0 0 0 0 0 0 0 0 0 0 0 0 0 0 0 0 0 0 0 0 0 0 0 0 0 0 0
0 0 0 0 0 0 0 0 0 0 0 0 0 0 0 0 0 0 0 0 0 0 0 0 0 0 0 0 0 0 0 0 0 0 0 0 0 0 0 0 0 0 0 0
0 0 0 0 0 0 0 0 0 0 0 0 0 0 0 0 0 0 0 0 0 0 0 0 0 0 0 0 0 0 0 0 0 0 0 0 0 0 0 0 0 0 0 0
0 0 0 0 0 0 0 0 0 0 0 0 0 0 0 0 0 0 0 0 0 0 0 0 0 0 0 0 0 0 0 0 0 0 0 0 0 0 0 0 0 0 0 0
0 0 0 0 0 0 0 0 0 0 0 0 0 0 0 0 0 0 0 0 0 0 0 0 0 0 0 0 0 0 0 0 0 0 0 0 0 0 0 0 0 0 0 0
0 0 0 0 0 0 0 0 0 0 0 0 0 0 0 0 0 0 0 0 0 0 0 0 0 0 0 0 0 0 0 0 0 0 0 0 0 0 0 0 0 0 0 0
0 0 0 0 0 0 0 0 0 0 0 0 0 0 0 0 0 0 0 0 0 0 0 0 0 0 0 0 0 0 0 0 0 0 0 0 0 0 0 0 0 0 0 0
0 0 0 0 0 0 0 0 0 0 0 0 0 0 0 0 0 0 0 0 0 0 0 0 0 0 0 0 0 0 0 0 0 0 0 0 0 0 0 0 0 0 0 0
0 0 0 0 0 0 0 0 0 0 0 0 0 0 0 0 0 0 0 0 0 0 0 0 0 0 0 0 0 0 0 0 0 0 0 0 0 0 0 0 0 0 0 0
0 0 0 0 0 0 0 0 0 0 0 0 0 0 0 0 0 0 0 0 0 0 0 0 0 0 0 0 0 0 0 0 0 0 0 0 0 0 0 0 0 0 0 0
0 0 0 0 0 0 0 0 0 0 0 0 0 0 0 0 0 0 0 0 0 0 0 0 0 0 0 0 0 0 0 0 0 0 0 0 0 0 0 0 0 0 0 0
0 0 0 0 0 0 0 0 0 0 0 0 0 0 0 0 0 0 0 0 0 0 0 0 0 0 0 0 0 0 0 0 0 0 0 0 0 0 0 0 0 0 0 0
0 0 0 0 0 0 0 0 0 0 0 0 0 0 0 0 0 0 0 0 0 0 0 0 0 0 0 0 0 0 0 0 0 0 0 0 0 0 0 0 0 0 0 0
0 0 0 0 0 0 0 0 0 0 0 0 0 0 0 0 0 0 0 0 0 0 0 0 0 0 0 0 0 0 0 0 0 0 0 0 0 0 0 0 0 0 0 0
Wind_Speed_500mb
8 8 21 16 12 7 13 9 10 3 2 7 11 14 17 23 29 35 35 37 44 43 35 39 37 31 31 28 26 23 20 18 15 11 9 8 8 9 11 12 13 13 12 12
7 21 12 16 10 12 11 9 6 3 2 5 0 21 19 19 28 55 51 45 45 44 44 46 45 42 36 27 26 27 24 21 19 15 10 10 10 11 11 11 11 11 11 11
15 5 24 16 10 11 5 10 8 4 4 2 8 15 8 4 12 26 38 44 42 44 48 51 52 47 39 33 28 28 26 23 21 18 15 14 14 11 11 12 11 11 11 10
8 5 18 13 13 14 10 9 12 14 7 6 5 8 10 4 8 7 22 37 40 38 43 52 55 52 44 32 28 29 29 26 24 20 17 14 12 10 11 13 12 11 11 10
14 13 16 12 13 14 9 13 13 8 7 5 3 5 14 4 11 13 18 23 27 31 37 51 58 51 42 35 31 29 30 29 25 21 19 17 14 15 15 14 13 12 11 10
5 4 1 9 6 11 22 16 16 10 6 4 9 11 12 10 13 7 13 26 25 22 24 36 48 51 45 40 34 31 31 31 26 23 21 19 15 15 16 15 14 12 10 9
6 1 3 6 15 8 8 15 5 6 4 10 4 2 16 9 10 10 29 37 26 22 24 34 45 58 52 44 36 32 32 32 28 23 22 20 18 17 18 15 13 11 10 9
14 6 15 6 10 17 12 13 12 15 9 5 4 13 13 3 5 8 26 29 22 21 22 30 38 51 51 42 34 31 31 33 28 25 23 22 20 19 19 16 14 13 11 10
12 8 4 6 1 5 12 9 10 14 5 6 8 13 15 3 4 11 23 26 25 22 22 29 35 42 43 37 31 28 30 31 29 25 24 22 20 18 18 17 16 15 13 11
15 8 3 2 1 5 5 13 8 5 8 7 8 9 11 12 19 15 18 31 30 26 24 27 32 37 37 32 28 29 28 27 26 26 25 22 20 20 20 19 17 16 14 13
10 8 1 4 13 17 6 6 4 10 9 10 5 12 13 16 16 20 30 35 30 28 26 25 28 31 32 33 33 30 30 32 31 29 27 24 22 21 20 19 17 17 16 15
6 11 9 11 5 3 2 11 12 10 11 6 5 12 5 9 19 45 46 40 32 25 23 23 25 30 35 37 36 33 32 35 33 31 29 27 25 22 20 18 19 19 18 16
19 6 8 9 7 4 9 10 8 9 6 15 12 10 3 4 14 39 46 37 31 27 26 26 27 29 31 35 35 33 33 35 35 33 32 30 26 23 21 21 21 20 18 17
28 8 17 27 9 16 15 14 12 10 8 12 15 9 10 10 16 30 49 45 35 28 24 24 25 25 27 30 32 31 32 35 37 35 32 30 27 24 23 22 21 21 20 20
11 14 7 5 6 9 9 29 32 35 31 23 18 18 16 22 27 54 60 45 38 32 28 25 24 23 26 30 32 33 31 33 38 37 35 31 29 29 27 25 23 22 22 21
3 7 8 3 1 5 5 19 45 39 20 11 8 13 10 16 31 44 56 51 45 37 28 24 22 21 20 22 25 29 31 33 37 38 35 33 33 32 29 28 26 25 24 23
18 14 6 9 7 10 11 26 30 32 10 31 30 14 11 10 24 53 61 56 48 40 32 25 19 16 16 17 20 26 29 32 34 35 36 36 35 34 31 30 29 28 26 25
11 14 6 6 6 15 9 3 17 41 25 24 9 15 27 33 50 56 61 59 49 40 33 27 21 17 15 17 20 26 32 33 31 30 32 35 36 35 34 33 32 31 30 27
8 8 8 10 19 10 5 9 15 20 20 24 26 15 18 35 38 17 43 47 41 35 31 25 22 20 19 21 23 26 30 31 30 28 28 29 31 33 34 35 33 31 31 30
12 9 6 5 9 15 7 3 16 10 12 19 37 21 28 45 17 9 46 45 42 33 24 21 21 19 21 23 24 25 27 28 26 24 21 23 24 27 30 30 32 31 31 30
13 7 10 8 5 11 9 7 17 12 9 13 51 50 54 17 10 48 51 42 36 30 27 24 22 20 21 23 24 26 26 23 24 26 26 24 23 22 23 26 30 31 33 35
9 11 6 6 5 12 4 5 13 3 4 16 38 45 48 30 41 58 52 44 36 33 30 27 26 27 27 27 26 27 25 22 19 17 15 15 15 16 19 22 26 30 35 38
5 7 11 9 7 2 2 4 3 5 12 17 34 47 50 49 56 56 50 42 38 36 36 33 30 32 32 29 26 23 21 17 14 11 9 9 9 11 14 16 18 24 30 35
4 5 7 8 2 1 4 5 8 11 15 20 35 54 52 61 61 57 52 48 45 42 41 39 36 34 33 30 26 23 22 18 16 13 8 4 1 5 8 13 16 19 22 26
4 14 12 1 3 2 9 12 16 19 22 32 41 50 57 60 59 58 57 52 49 46 43 38 36 33 31 26 21 17 15 12 10 8 8 9 11 12 13 15 17 22 24 28
7 10 9 8 24 8 17 31 28 30 36 40 51 56 58 58 63 59 56 50 47 43 38 33 29 25 21 17 12 8 7 6 9 13 17 21 23 26 28 29 27 26 29 32
Wind_Direction_500mb
168 125 196 181 169 145 144 136 171 236 199 155 226 268 256 230 226 235 233 228 223 223 217 213 213 218 219 223 224 222 219 210 205 198 194 182 163 152 145 138 128 119 112 100
86 226 170 142 140 118 128 132 177 21 60 137 271 270 258 226 231 235 239 233 230 221 214 209 210 214 220 230 225 221 216 213 209 206 213 200 190 180 158 147 138 137 122 109
162 256 151 140 154 147 142 151 176 178 133 18 336 293 286 210 232 243 235 235 231 225 218 212 212 213 215 220 225 222 220 215 214 214 219 219 206 189 173 164 162 153 135 121
174 132 148 143 182 140 186 186 131 129 105 215 67 268 296 267 242 236 229 221 222 220 222 221 216 213 213 215 218 220 222 218 217 218 220 214 209 206 196 183 177 168 150 135
206 166 149 158 189 142 189 126 129 113 101 86 308 65 268 339 254 229 214 193 195 213 223 220 218 216 211 210 217 220 221 220 220 221 218 217 221 217 208 199 189 177 163 153
91 77 146 158 73 141 149 91 51 57 73 343 215 153 273 198 211 184 204 196 196 204 210 213 215 211 207 208 212 219 221 220 221 223 220 223 228 229 221 212 198 189 178 171
37 219 283 166 84 28 108 103 34 5 4 222 344 83 248 237 231 209 195 197 199 209 210 207 204 202 205 210 214 218 219 220 223 224 224 226 230 218 215 214 207 203 198 189
147 219 174 172 173 176 183 154 149 188 193 208 67 226 252 264 318 246 206 192 199 204 203 203 203 202 206 211 216 218 217 219 223 224 221 221 218 212 214 212 212 210 208 202
136 199 9 34 6 130 192 187 151 108 28 58 203 280 298 154 187 161 164 182 189 191 194 192 192 199 205 212 217 216 213 217 221 222 217 215 215 215 215 217 217 215 214 211
196 106 20 322 262 27 136 162 82 1 134 229 259 270 240 225 216 195 188 193 188 185 182 183 187 193 202 209 211 211 214 218 219 216 212 211 213 212 213 215 217 218 215 214
135 95 18 147 214 171 146 178 112 122 156 161 178 252 218 223 191 184 197 195 190 186 184 185 189 195 202 205 208 212 218 213 212 213 212 211 213 214 213 214 215 216 218 219
183 114 159 193 275 330 13 177 155 140 209 225 161 261 170 238 203 185 190 189 189 189 184 185 190 198 202 206 210 214 217 214 211 212 213 212 214 216 216 215 216 218 218 219
180 165 100 353 342 10 209 201 179 121 95 192 156 249 1 255 187 192 182 183 184 185 188 190 194 201 205 208 212 216 218 214 215 215 214 214 215 216 216 218 219 221 220 219
153 134 189 216 171 133 188 179 181 155 184 164 213 183 228 202 176 177 185 184 181 182 187 194 196 200 204 208 214 216 217 215 218 219 219 218 217 218 220 221 222 222 221 220
140 172 135 9 112 122 159 177 185 206 202 195 190 197 213 197 185 186 184 179 177 181 187 195 199 200 202 205 207 211 215 219 221 221 221 221 221 220 221 223 224 226 226 225
170 187 125 12 125 125 183 199 200 209 214 268 159 229 219 165 156 171 183 182 181 184 184 187 196 204 203 206 209 211 215 219 221 222 223 224 224 225 224 224 227 228 230 231
175 144 133 210 154 135 285 204 194 207 183 201 209 192 145 148 166 181 188 190 186 181 182 185 190 197 204 209 212 215 216 220 220 219 220 223 227 228 228 228 230 232 234 234
129 127 68 131 140 208 273 16 190 202 207 205 128 167 177 184 190 195 197 190 186 179 183 190 196 205 215 223 221 212 211 215 218 218 218 222 226 229 231 232 234 234 237 238
61 95 150 172 199 312 280 190 156 174 229 202 196 163 163 162 154 144 186 191 186 184 189 195 203 210 221 229 223 215 209 207 209 210 215 221 226 231 234 236 238 240 242 245
113 104 120 148 171 205 253 171 159 116 285 184 179 165 153 151 165 197 172 181 182 182 187 198 204 210 214 214 209 201 198 200 200 201 205 214 221 228 233 236 238 239 242 246
144 158 171 165 192 279 254 184 153 113 242 161 180 171 162 171 169 166 167 171 177 178 181 185 190 193 194 192 185 181 183 181 184 192 199 207 216 224 230 232 235 239 243 244
141 135 159 102 117 255 156 107 162 218 73 145 162 169 162 157 146 158 165 165 168 170 169 171 176 173 168 164 161 162 163 168 176 185 193 201 210 221 230 237 239 241 245 248
162 159 163 183 193 353 305 317 140 137 149 150 162 163 155 143 149 158 156 158 159 162 161 157 161 157 148 146 144 148 144 143 144 151 164 179 197 205 224 235 243 249 252 255
159 162 115 127 198 273 234 199 190 160 154 154 175 171 175 157 155 151 152 151 150 150 150 146 145 141 135 130 127 123 116 110 102 97 91 79 335 278 266 262 258 261 265 270
220 144 132 18 262 191 209 185 156 142 143 145 152 163 164 159 153 153 150 149 147 144 141 137 136 134 130 127 121 112 100 87 67 39 15 352 330 315 304 298 287 291 286 278
204 161 164 213 182 141 170 162 153 150 148 154 155 155 158 161 155 154 149 150 150 148 144 140 137 136 129 118 103 85 60 42 20 357 341 333 319 311 306 301 295 292 291 288
Wind_Speed_850mb
8 8 21 16 12 7 13 9 10 3 2 7 11 14 17 23 29 35 35 37 44 43 35 39 37 31 31 28 26 23 20 18 15 11 9 8 8 9 11 12 13 13 12 12
7 21 12 16 10 12 11 9 6 3 2 5 0 21 19 19 28 55 51 45 45 44 44 46 45 42 36 27 26 27 24 21 19 15 10 10 10 11 11 11 11 11 11 11
15 5 24 16 10 11 5 10 8 4 4 2 8 15 8 4 12 26 38 44 42 44 48 51 52 47 39 33 28 28 26 23 21 18 15 14 14 11 11 12 11 11 11 10
8 5 18 13 13 14 10 9 12 14 7 6 5 8 10 4 8 7 22 37 40 38 43 52 55 52 44 32 28 29 29 26 24 20 17 14 12 10 11 13 12 11 11 10
14 13 16 12 13 14 9 13 13 8 7 5 3 5 14 4 11 13 18 23 27 31 37 51 58 51 42 35 31 29 30 29 25 21 19 17 14 15 15 14 13 12 11 10
5 4 1 9 6 11 22 16 16 10 6 4 9 11 12 10 13 7 13 26 25 22 24 36 48 51 45 40 34 31 31 31 26 23 21 19 15 15 16 15 14 12 10 9
6 1 3 6 15 8 8 15 5 6 4 10 4 2 16 9 10 10 29 37 26 22 24 34 45 58 52 44 36 32 32 32 28 23 22 20 18 17 18 15 13 11 10 9
14 6 15 6 10 17 12 13 12 15 9 5 4 13 13 3 5 8 26 29 22 21 22 30 38 51 51 42 34 31 31 33 28 25 23 22 20 19 19 16 14 13 11 10
12 8 4 6 1 5 12 9 10 14 5 6 8 13 15 3 4 11 23 26 25 22 22 29 35 42 43 37 31 28 30 31 29 25 24 22 20 18 18 17 16 15 13 11
15 8 3 2 1 5 5 13 8 5 8 7 8 9 11 12 19 15 18 31 30 26 24 27 32 37 37 32 28 29 28 27 26 26 25 22 20 20 20 19 17 16 14 13
10 8 1 4 13 17 6 6 4 10 9 10 5 12 13 16 16 20 30 35 30 28 26 25 28 31 32 33 33 30 30 32 31 29 27 24 22 21 20 19 17 17 16 15
6 11 9 11 5 3 2 11 12 10 11 6 5 12 5 9 19 45 46 40 32 25 23 23 25 30 35 37 36 33 32 35 33 31 29 27 25 22 20 18 19 19 18 16
19 6 8 9 7 4 9 10 8 9 6 15 12 10 3 4 14 39 46 37 31 27 26 26 27 29 31 35 35 33 33 35 35 33 32 30 26 23 21 21 21 20 18 17
28 8 17 27 9 16 15 14 12 10 8 12 15 9 10 10 16 30 49 45 35 28 24 24 25 25 27 30 32 31 32 35 37 35 32 30 27 24 23 22 21 21 20 20
11 14 7 5 6 9 9 29 32 35 31 23 18 18 16 22 27 54 60 45 38 32 28 25 24 23 26 30 32 33 31 33 38 37 35 31 29 29 27 25 23 22 22 21
3 7 8 3 1 5 5 19 45 39 20 11 8 13 10 16 31 44 56 51 45 37 28 24 22 21 20 22 25 29 31 33 37 38 35 33 33 32 29 28 26 25 24 23
18 14 6 9 7 10 11 26 30 32 10 31 30 14 11 10 24 53 61 56 48 40 32 25 19 16 16 17 20 26 29 32 34 35 36 36 35 34 31 30 29 28 26 25
11 14 6 6 6 15 9 3 17 41 25 24 9 15 27 33 50 56 61 59 49 40 33 27 21 17 15 17 20 26 32 33 31 30 32 35 36 35 34 33 32 31 30 27
8 8 8 10 19 10 5 9 15 20 20 24 26 15 18 35 38 17 43 47 41 35 31 25 22 20 19 21 23 26 30 31 30 28 28 29 31 33 34 35 33 31 31 30
12 9 6 5 9 15 7 3 16 10 12 19 37 21 28 45 17 9 46 45 42 33 24 21 21 19 21 23 24 25 27 28 26 24 21 23 24 27 30 30 32 31 31 30
13 7 10 8 5 11 9 7 17 12 9 13 51 50 54 17 10 48 51 42 36 30 27 24 22 20 21 23 24 26 26 23 24 26 26 24 23 22 23 26 30 31 33 35
9 11 6 6 5 12 4 5 13 3 4 16 38 45 48 30 41 58 52 44 36 33 30 27 26 27 27 27 26 27 25 22 19 17 15 15 15 16 19 22 26 30 35 38
5 7 11 9 7 2 2 4 3 5 12 17 34 47 50 49 56 56 50 42 38 36 36 33 30 32 32 29 26 23 21 17 14 11 9 9 9 11 14 16 18 24 30 35
4 5 7 8 2 1 4 5 8 11 15 20 35 54 52 61 61 57 52 48 45 42 41 39 36 34 33 30 26 23 22 18 16 13 8 4 1 5 8 13 16 19 22 26
4 14 12 1 3 2 9 12 16 19 22 32 41 50 57 60 59 58 57 52 49 46 43 38 36 33 31 26 21 17 15 12 10 8 8 9 11 12 13 15 17 22 24 28
7 10 9 8 24 8 17 31 28 30 36 40 51 56 58 58 63 59 56 50 47 43 38 33 29 25 21 17 12 8 7 6 9 13 17 21 23 26 28 29 27 26 29 32
Wind_Direction_850mb
168 125 196 181 169 145 144 136 171 236 199 155 226 268 256 230 226 235 233 228 223 223 217 213 213 218 219 223 224 222 219 210 205 198 194 182 163 152 145 138 128 119 112 100
86 226 170 142 140 118 128 132 177 21 60 137 271 270 258 226 231 235 239 233 230 221 214 209 210 214 220 230 225 221 216 213 209 206 213 200 190 180 158 147 138 137 122 109
162 256 151 140 154 147 142 151 176 178 133 18 336 293 286 210 232 243 235 235 231 225 218 212 212 213 215 220 225 222 220 215 214 214 219 219 206 189 173 164 162 153 135 121
174 132 148 143 182 140 186 186 131 129 105 215 67 268 296 267 242 236 229 221 222 220 222 221 216 213 213 215 218 220 222 218 217 218 220 214 209 206 196 183 177 168 150 135
206 166 149 158 189 142 189 126 129 113 101 86 308 65 268 339 254 229 214 193 195 213 223 220 218 216 211 210 217 220 221 220 220 221 218 217 221 217 208 199 189 177 163 153
91 77 146 158 73 141 149 91 51 57 73 343 215 153 273 198 211 184 204 196 196 204 210 213 215 211 207 208 212 219 221 220 221 223 220 223 228 229 221 212 198 189 178 171
37 219 283 166 84 28 108 103 34 5 4 222 344 83 248 237 231 209 195 197 199 209 210 207 204 202 205 210 214 218 219 220 223 224 224 226 230 218 215 214 207 203 198 189
147 219 174 172 173 176 183 154 149 188 193 208 67 226 252 264 318 246 206 192 199 204 203 203 203 202 206 211 216 218 217 219 223 224 221 221 218 212 214 212 212 210 208 202
136 199 9 34 6 130 192 187 151 108 28 58 203 280 298 154 187 161 164 182 189 191 194 192 192 199 205 212 217 216 213 217 221 222 217 215 215 215 215 217 217 215 214 211
196 106 20 322 262 27 136 162 82 1 134 229 259 270 240 225 216 195 188 193 188 185 182 183 187 193 202 209 211 211 214 218 219 216 212 211 213 212 213 215 217 218 215 214
135 95 18 147 214 171 146 178 112 122 156 161 178 252 218 223 191 184 197 195 190 186 184 185 189 195 202 205 208 212 218 213 212 213 212 211 213 214 213 214 215 216 218 219
183 114 159 193 275 330 13 177 155 140 209 225 161 261 170 238 203 185 190 189 189 189 184 185 190 198 202 206 210 214 217 214 211 212 213 212 214 216 216 215 216 218 218 219
180 165 100 353 342 10 209 201 179 121 95 192 156 249 1 255 187 192 182 183 184 185 188 190 194 201 205 208 212 216 218 214 215 215 214 214 215 216 216 218 219 221 220 219
153 134 189 216 171 133 188 179 181 155 184 164 213 183 228 202 176 177 185 184 181 182 187 194 196 200 204 208 214 216 217 215 218 219 219 218 217 218 220 221 222 222 221 220
140 172 135 9 112 122 159 177 185 206 202 195 190 197 213 197 185 186 184 179 177 181 187 195 199 200 202 205 207 211 215 219 221 221 221 221 221 220 221 223 224 226 226 225
170 187 125 12 125 125 183 199 200 209 214 268 159 229 219 165 156 171 183 182 181 184 184 187 196 204 203 206 209 211 215 219 221 222 223 224 224 225 224 224 227 228 230 231
175 144 133 210 154 135 285 204 194 207 183 201 209 192 145 148 166 181 188 190 186 181 182 185 190 197 204 209 212 215 216 220 220 219 220 223 227 228 228 228 230 232 234 234
129 127 68 131 140 208 273 16 190 202 207 205 128 167 177 184 190 195 197 190 186 179 183 190 196 205 215 223 221 212 211 215 218 218 218 222 226 229 231 232 234 234 237 238
61 95 150 172 199 312 280 190 156 174 229 202 196 163 163 162 154 144 186 191 186 184 189 195 203 210 221 229 223 215 209 207 209 210 215 221 226 231 234 236 238 240 242 245
113 104 120 148 171 205 253 171 159 116 285 184 179 165 153 151 165 197 172 181 182 182 187 198 204 210 214 214 209 201 198 200 200 201 205 214 221 228 233 236 238 239 242 246
144 158 171 165 192 279 254 184 153 113 242 161 180 171 162 171 169 166 167 171 177 178 181 185 190 193 194 192 185 181 183 181 184 192 199 207 216 224 230 232 235 239 243 244
141 135 159 102 117 255 156 107 162 218 73 145 162 169 162 157 146 158 165 165 168 170 169 171 176 173 168 164 161 162 163 168 176 185 193 201 210 221 230 237 239 241 245 248
162 159 163 183 193 353 305 317 140 137 149 150 162 163 155 143 149 158 156 158 159 162 161 157 161 157 148 146 144 148 144 143 144 151 164 179 197 205 224 235 243 249 252 255
159 162 115 127 198 273 234 199 190 160 154 154 175 171 175 157 155 151 152 151 150 150 150 146 145 141 135 130 127 123 116 110 102 97 91 79 335 278 266 262 258 261 265 270
220 144 132 18 262 191 209 185 156 142 143 145 152 163 164 159 153 153 150 149 147 144 141 137 136 134 130 127 121 112 100 87 67 39 15 352 330 315 304 298 287 291 286 278
204 161 164 213 182 141 170 162 153 150 148 154 155 155 158 161 155 154 149 150 150 148 144 140 137 136 129 118 103 85 60 42 20 357 341 333 319 311 306 301 295 292 291 288